Wind_Speed
25 26 25 24 23 22 23 21 18 20 23 28 25 20 16 21 17 18 27 24 23 8 9 25 21 17 14 9 9 8 3 5 7 6 4 2 1 1 2 8 8 4 8 7 10
27 24 25 27 25 23 23 22 18 17 19 22 27 22 15 19 19 28 29 21 16 16 10 27 25 18 9 8 8 5 4 10 7 5 4 1 1 4 4 8 4 6 5 11 13
28 26 26 25 24 25 24 20 19 17 17 20 18 22 16 9 15 31 22 26 20 23 16 22 24 18 7 8 8 5 4 5 6 6 3 3 3 1 1 4 4 4 7 6 20
24 23 26 23 22 19 20 23 22 21 17 19 17 17 24 12 7 1 5 20 21 27 21 20 21 16 6 5 8 3 5 9 6 9 4 4 1 3 7 9 5 6 8 1 16
24 25 24 22 20 19 20 19 19 21 18 18 17 16 17 8 22 3 2 9 27 29 28 23 23 15 6 8 6 4 2 11 11 9 7 5 7 8 11 13 15 15 13 9 6
22 23 22 20 19 17 17 16 16 14 14 17 14 18 13 8 18 24 8 14 31 32 31 25 16 14 12 6 6 7 10 7 5 8 6 4 7 9 3 7 15 20 20 18 15
23 22 21 19 18 16 16 17 15 14 14 13 13 15 17 15 8 9 11 16 31 33 33 26 17 11 9 4 11 5 3 2 7 5 5 1 7 7 20 24 28 29 27 25 24
23 20 21 22 21 17 17 14 16 14 12 10 7 11 9 22 15 9 11 18 27 29 30 27 11 11 3 6 4 6 3 2 3 8 6 8 6 5 13 16 25 28 30 31 31
25 21 22 19 17 16 15 20 18 12 10 8 8 8 3 9 20 8 11 22 22 21 22 23 15 7 4 6 4 2 4 4 5 7 3 8 3 3 7 8 20 26 28 28 28
25 23 23 15 15 16 15 25 10 10 5 4 7 3 5 7 20 14 10 17 23 24 17 19 10 5 3 4 6 6 2 2 5 1 2 5 7 11 20 18 18 19 25 26 27
27 25 18 14 15 17 19 16 1 3 9 7 5 4 5 10 20 13 13 16 15 22 9 14 6 15 10 5 3 6 4 4 3 0 3 6 5 12 18 16 20 25 30 33 36
25 22 16 16 17 17 13 2 2 2 2 14 8 18 2 20 12 15 15 8 6 5 7 7 8 7 8 8 6 4 4 2 3 1 1 5 11 14 15 11 23 27 31 35 38
29 25 21 20 21 18 7 2 5 3 2 4 5 9 7 21 6 12 12 5 5 4 11 6 4 10 8 8 7 2 3 3 2 4 1 7 6 5 4 5 8 16 20 23 26
27 20 15 12 6 7 3 10 7 6 4 1 2 3 12 14 3 13 11 2 2 8 12 3 2 4 5 6 4 3 2 2 3 3 3 4 5 7 5 9 4 11 19 16 14
24 20 11 10 8 7 4 4 8 3 5 2 1 13 11 7 15 5 5 4 4 9 3 2 4 10 7 4 7 1 3 4 3 3 3 2 2 8 4 4 4 9 20 23 27
18 16 12 14 13 10 7 8 5 4 5 0 2 7 6 3 4 7 3 7 8 9 11 4 2 3 3 5 2 8 5 5 4 2 2 2 3 6 1 1 7 6 16 23 29
15 15 17 15 16 13 6 1 3 5 1 3 4 6 10 5 5 4 2 3 3 5 3 4 2 1 5 6 4 3 5 2 4 3 4 1 1 8 6 6 3 4 14 26 32
15 15 14 13 8 5 8 2 8 4 5 6 11 13 6 5 5 3 3 3 6 5 3 3 2 1 1 3 5 2 4 4 4 1 3 2 5 5 4 5 3 4 16 33 37
13 14 14 14 10 8 5 5 3 3 1 9 9 7 5 6 4 4 3 3 2 3 5 4 3 1 3 2 3 3 2 2 5 2 3 2 7 7 4 5 0 8 24 35 33
14 11 17 18 12 7 3 6 3 2 2 5 5 1 3 3 3 2 1 1 4 2 2 3 4 2 2 4 8 3 6 3 3 2 3 4 5 4 3 6 7 11 25 33 34
13 4 20 13 10 8 4 3 3 6 3 4 3 4 4 4 3 4 3 2 2 3 6 4 4 1 2 1 6 2 2 5 4 2 3 2 5 5 4 1 4 9 25 27 28
8 3 18 10 6 3 3 4 4 4 3 4 4 5 4 3 3 2 6 1 5 7 4 1 4 3 1 1 1 2 4 4 4 3 2 2 6 3 6 2 5 20 24 23 21
5 5 13 10 3 3 3 3 2 4 4 2 2 3 1 4 4 3 3 2 9 3 5 4 2 3 3 4 3 3 4 4 4 3 5 4 5 1 2 9 23 17 24 19 25
3 3 7 9 6 3 4 3 3 2 2 4 3 3 4 3 4 4 2 3 8 6 7 4 3 4 5 4 3 2 4 5 5 3 3 6 7 12 13 13 18 20 18 27 25
5 2 2 3 3 4 2 2 2 4 5 3 4 2 5 3 2 3 2 2 4 5 4 3 3 2 4 4 3 4 4 7 7 5 6 4 6 13 16 14 18 20 22 21 21
3 1 1 3 8 4 4 5 4 2 2 2 5 1 2 4 5 6 6 2 3 3 3 1 3 1 3 2 5 5 8 9 9 6 10 13 19 20 23 17 15 13 16 18 19
5 4 2 2 2 2 2 4 4 3 5 6 3 2 4 1 1 6 3 8 7 7 3 4 5 2 3 4 5 5 8 13 5 5 9 9 11 8 10 8 10 17 14 17 16
Wind_Direction
309 306 307 304 295 290 292 291 290 303 264 253 268 255 344 238 250 237 231 229 221 184 185 189 189 184 177 184 181 170 113 186 197 168 214 148 169 120 273 284 305 253 251 237 229
315 315 313 306 299 293 288 285 281 295 292 274 254 269 300 228 243 248 240 236 217 182 190 191 189 181 176 184 185 171 168 198 190 184 194 115 104 333 342 332 312 291 270 252 216
317 314 307 306 300 301 294 291 284 275 294 302 274 273 252 246 235 262 246 235 217 186 183 194 198 182 182 176 184 179 207 177 220 186 166 137 311 52 350 300 281 323 353 218 194
313 314 311 308 301 297 293 288 281 285 287 297 282 270 248 268 218 180 224 209 199 184 184 176 190 178 159 181 183 151 202 182 228 209 224 169 243 282 236 245 272 303 333 322 207
326 321 318 314 307 304 300 293 280 277 279 290 298 265 252 205 223 152 183 194 182 186 189 179 172 173 166 168 141 168 193 212 234 248 268 235 228 233 249 258 266 270 271 278 261
320 320 324 322 318 314 305 297 291 287 279 284 295 247 269 220 239 240 284 197 183 185 187 186 173 173 174 193 166 197 202 231 243 249 260 236 243 230 240 240 250 261 260 264 261
325 322 323 324 322 315 310 307 295 289 281 284 282 243 266 228 224 239 227 197 183 187 185 183 162 166 156 123 189 142 104 275 247 225 238 1 264 223 251 257 262 263 267 266 265
325 320 327 320 317 317 316 313 306 284 277 285 269 236 240 216 230 205 191 179 182 190 191 180 179 170 158 131 85 123 91 218 279 169 229 156 251 271 282 254 260 265 264 265 263
326 322 321 307 309 318 326 317 310 281 265 260 250 263 228 206 206 196 202 191 178 177 185 181 176 177 148 126 96 89 179 191 314 197 167 190 295 259 323 289 262 265 270 271 268
325 320 320 307 311 316 318 326 304 271 248 186 211 274 231 205 175 216 210 188 170 164 147 173 179 139 108 179 189 153 169 187 206 296 160 266 277 281 286 286 271 277 280 279 277
323 317 309 299 307 319 321 338 79 77 173 196 217 230 128 147 177 206 172 169 169 158 189 175 170 192 177 160 138 125 141 177 242 22 306 251 262 282 281 277 271 270 272 275 274
318 323 308 296 302 309 322 315 144 138 308 232 279 231 90 145 175 185 166 183 140 130 84 146 202 163 154 153 125 120 133 225 281 353 290 314 292 264 267 253 253 259 265 271 279
319 312 305 298 299 288 263 182 176 129 153 77 247 192 141 162 121 155 167 141 107 93 138 166 123 148 150 170 154 112 148 191 219 333 63 324 286 313 301 283 300 288 284 281 289
334 325 323 324 10 111 146 174 195 176 89 81 297 103 139 143 51 141 156 127 79 101 101 50 306 137 162 156 116 168 193 87 71 38 265 15 287 301 323 315 321 24 26 14 355
11 7 15 45 74 96 117 166 176 214 88 97 72 134 143 155 136 160 130 59 112 120 94 86 132 143 163 133 114 179 97 103 86 88 13 340 93 271 350 351 5 356 18 50 50
20 34 51 64 79 91 106 118 148 33 73 90 139 141 96 59 64 115 94 80 95 52 83 80 156 106 96 105 168 151 86 59 58 84 16 310 126 285 268 69 310 6 38 34 24
28 35 61 75 90 91 85 6 19 63 266 49 89 124 110 86 86 69 47 73 109 124 79 89 357 51 111 95 62 95 77 346 354 15 219 144 65 252 287 284 270 308 19 14 8
26 39 49 52 58 23 355 50 56 26 59 132 106 78 81 99 80 67 124 78 36 79 99 136 143 39 39 119 167 110 139 159 220 205 285 56 237 255 226 252 149 58 3 1 356
10 9 21 13 360 351 341 44 49 355 54 114 76 72 51 44 75 98 360 106 99 50 119 117 46 18 46 102 96 185 149 171 109 72 47 249 282 298 27 76 352 341 354 351 347
335 338 3 350 343 351 44 87 60 170 58 65 88 123 102 108 84 68 29 97 99 60 105 181 87 25 109 106 46 127 143 75 10 117 265 279 278 247 298 348 359 352 336 342 342
343 12 360 350 7 51 58 43 340 359 45 86 145 105 122 136 118 160 187 9 117 125 70 130 98 12 82 179 169 113 124 51 104 99 152 296 268 212 227 179 333 310 333 330 331
15 34 5 25 45 20 28 336 333 314 4 70 93 84 105 117 91 122 188 213 161 143 102 49 115 147 138 350 222 147 162 143 130 220 99 132 275 254 249 207 290 315 322 321 322
11 351 19 36 65 357 335 322 312 336 358 63 86 71 127 128 122 148 183 145 155 132 152 175 43 61 6 1 5 194 188 134 109 99 200 147 261 94 316 290 309 309 316 316 335
12 26 14 53 49 3 1 339 357 330 359 55 96 98 100 82 37 163 112 5 180 169 121 98 103 145 184 206 146 198 185 175 132 136 189 233 286 294 304 299 305 313 319 332 338
48 99 37 337 348 338 282 277 28 4 353 40 52 133 127 106 90 99 96 101 70 152 83 103 120 125 253 233 180 205 188 186 196 179 180 243 234 275 286 289 301 315 321 331 333
73 52 160 261 301 322 342 360 21 345 357 3 119 264 98 143 176 185 140 152 158 42 112 108 132 91 299 339 213 245 227 211 212 222 255 263 281 276 279 294 300 320 326 332 333
45 33 307 286 357 23 317 315 353 340 41 47 85 79 68 86 249 205 128 142 158 144 134 138 132 101 280 337 314 293 227 198 179 200 211 230 240 285 298 307 316 321 323 332 334
Height
1485 1482 1479 1476 1474 1472 1470 1469 1467 1466 1465 1465 1464 1465 1464 1466 1467 1467 1462 1465 1471 1473 1476 1482 1485 1490 1492 1496 1498 1500 1510 1515 1508 1511 1506 1503 1503 1502 1503 1503 1503 1503 1503 1503 1503
1481 1477 1475 1472 1469 1467 1465 1463 1463 1463 1461 1460 1461 1461 1462 1460 1462 1457 1457 1463 1467 1472 1475 1478 1482 1488 1491 1493 1496 1497 1505 1504 1498 1499 1501 1501 1502 1502 1503 1502 1502 1502 1502 1502 1502
1477 1473 1469 1466 1464 1462 1460 1459 1459 1458 1458 1457 1456 1457 1459 1457 1458 1446 1454 1457 1463 1469 1474 1477 1483 1486 1489 1491 1492 1494 1497 1495 1495 1496 1497 1500 1501 1502 1502 1502 1501 1502 1502 1501 1501
1472 1468 1464 1461 1458 1457 1455 1454 1454 1454 1454 1453 1453 1453 1454 1454 1455 1448 1447 1451 1459 1466 1471 1475 1480 1484 1487 1489 1489 1493 1493 1493 1494 1496 1497 1499 1500 1500 1501 1501 1501 1502 1504 1504 1503
1468 1464 1460 1456 1454 1452 1451 1450 1448 1449 1450 1450 1450 1450 1453 1451 1448 1446 1447 1450 1454 1462 1467 1471 1476 1481 1484 1487 1489 1491 1492 1493 1493 1494 1495 1496 1497 1499 1496 1498 1500 1500 1501 1504 1505
1464 1460 1456 1453 1451 1449 1447 1446 1444 1445 1445 1446 1447 1448 1448 1445 1445 1446 1448 1448 1451 1458 1464 1469 1473 1479 1483 1484 1487 1487 1490 1491 1491 1493 1493 1494 1494 1495 1493 1495 1496 1495 1497 1499 1501
1460 1456 1453 1450 1448 1446 1444 1442 1441 1441 1441 1442 1443 1445 1442 1442 1441 1443 1446 1445 1451 1456 1461 1469 1474 1477 1480 1483 1485 1487 1490 1491 1489 1490 1492 1492 1490 1489 1489 1492 1490 1491 1492 1494 1496
1457 1453 1451 1448 1445 1442 1440 1439 1437 1437 1437 1438 1439 1441 1437 1438 1441 1442 1444 1446 1452 1457 1462 1468 1473 1476 1479 1481 1484 1489 1492 1497 1487 1488 1489 1491 1488 1486 1486 1486 1484 1485 1486 1488 1489
1452 1449 1447 1445 1441 1439 1437 1435 1433 1433 1434 1436 1438 1438 1434 1434 1439 1442 1444 1447 1451 1458 1464 1469 1473 1476 1480 1483 1489 1490 1498 1496 1490 1485 1486 1489 1488 1481 1482 1483 1483 1481 1480 1481 1482
1448 1445 1442 1440 1438 1436 1433 1431 1428 1430 1432 1435 1436 1439 1433 1432 1436 1441 1445 1447 1451 1457 1463 1469 1472 1475 1480 1481 1490 1488 1492 1493 1493 1487 1487 1488 1489 1480 1480 1479 1480 1479 1476 1474 1475
1444 1440 1437 1436 1435 1432 1430 1428 1430 1432 1431 1430 1432 1431 1430 1433 1439 1442 1445 1447 1448 1456 1459 1464 1466 1467 1474 1478 1481 1485 1490 1492 1489 1487 1487 1488 1488 1480 1475 1475 1474 1473 1471 1469 1467
1440 1436 1433 1431 1430 1430 1429 1428 1428 1431 1430 1430 1431 1431 1432 1435 1440 1443 1445 1448 1447 1448 1453 1467 1465 1468 1473 1476 1481 1484 1488 1491 1489 1488 1490 1488 1485 1476 1468 1466 1465 1465 1464 1463 1463
1434 1430 1428 1426 1424 1424 1426 1428 1428 1428 1430 1432 1431 1431 1433 1437 1440 1442 1445 1446 1448 1453 1457 1462 1465 1466 1470 1476 1482 1486 1487 1491 1492 1492 1493 1491 1480 1475 1463 1461 1462 1462 1462 1461 1461
1429 1425 1422 1421 1421 1419 1424 1426 1427 1428 1437 1435 1431 1432 1435 1437 1441 1443 1446 1449 1451 1456 1462 1469 1468 1468 1471 1475 1480 1487 1486 1488 1492 1494 1500 1496 1499 1479 1466 1465 1461 1461 1460 1460 1459
1430 1425 1421 1420 1421 1424 1427 1427 1428 1428 1437 1437 1434 1435 1435 1440 1441 1445 1448 1449 1452 1456 1458 1472 1469 1472 1475 1478 1481 1488 1488 1492 1496 1502 1503 1500 1506 1478 1469 1465 1464 1462 1461 1461 1459
1434 1429 1426 1425 1425 1427 1428 1429 1430 1439 1429 1435 1433 1434 1437 1440 1443 1448 1451 1452 1454 1459 1464 1471 1473 1473 1476 1481 1484 1488 1491 1499 1505 1508 1523 1504 1505 1481 1469 1467 1465 1465 1462 1460 1457
1439 1437 1433 1431 1431 1430 1432 1431 1436 1436 1439 1437 1434 1434 1437 1442 1446 1449 1454 1457 1459 1468 1470 1478 1477 1475 1475 1482 1485 1488 1494 1518 1517 1530 1513 1506 1507 1480 1468 1467 1465 1464 1461 1459 1457
1445 1444 1439 1435 1434 1433 1431 1434 1436 1431 1430 1436 1434 1439 1443 1446 1453 1455 1457 1459 1459 1462 1472 1478 1482 1476 1477 1479 1484 1489 1493 1509 1499 1512 1512 1508 1502 1473 1466 1463 1463 1462 1460 1457 1455
1449 1446 1442 1437 1436 1434 1433 1437 1442 1439 1437 1438 1440 1447 1453 1452 1455 1461 1460 1461 1462 1463 1472 1485 1485 1480 1479 1480 1483 1492 1502 1499 1512 1520 1530 1504 1491 1470 1464 1464 1464 1462 1459 1457 1456
1450 1446 1444 1439 1437 1435 1435 1437 1441 1440 1439 1442 1451 1452 1458 1458 1461 1461 1461 1461 1463 1464 1464 1474 1490 1481 1482 1481 1486 1486 1494 1508 1521 1522 1511 1501 1499 1480 1466 1466 1463 1460 1459 1455 1453
1450 1449 1446 1442 1438 1436 1444 1447 1444 1442 1441 1443 1449 1452 1458 1459 1461 1466 1465 1463 1462 1466 1465 1473 1481 1486 1482 1484 1489 1493 1495 1502 1507 1517 1523 1515 1482 1472 1468 1465 1464 1462 1458 1457 1453
1450 1452 1450 1444 1445 1449 1449 1451 1449 1446 1443 1443 1446 1449 1455 1458 1461 1462 1465 1462 1462 1464 1469 1471 1481 1495 1485 1486 1485 1486 1491 1497 1514 1521 1519 1521 1493 1466 1466 1463 1463 1458 1455 1454 1453
1451 1453 1452 1448 1455 1456 1453 1452 1450 1447 1446 1445 1447 1448 1452 1457 1462 1463 1462 1462 1462 1464 1468 1471 1486 1506 1492 1491 1488 1488 1490 1492 1498 1504 1524 1518 1485 1464 1464 1461 1457 1455 1452 1451 1448
1455 1457 1455 1455 1457 1458 1457 1455 1451 1448 1448 1447 1449 1449 1452 1456 1458 1462 1462 1462 1462 1464 1466 1468 1482 1488 1497 1488 1488 1494 1488 1489 1495 1512 1505 1497 1480 1463 1461 1458 1453 1451 1448 1445 1443
1458 1463 1464 1465 1459 1461 1460 1456 1453 1452 1449 1448 1450 1451 1452 1458 1458 1461 1463 1463 1465 1465 1468 1471 1487 1490 1483 1482 1485 1484 1482 1488 1494 1490 1496 1482 1480 1465 1459 1455 1449 1448 1446 1443 1441
1461 1463 1463 1461 1460 1459 1457 1455 1454 1452 1451 1449 1452 1451 1451 1454 1457 1461 1462 1463 1463 1468 1470 1473 1489 1489 1490 1480 1483 1485 1483 1484 1484 1482 1481 1477 1473 1457 1452 1450 1448 1447 1444 1443 1440
1463 1463 1464 1460 1459 1459 1460 1456 1454 1451 1451 1451 1451 1451 1453 1455 1454 1454 1455 1458 1460 1466 1471 1473 1484 1489 1496 1484 1482 1480 1469 1469 1470 1471 1469 1475 1459 1451 1448 1449 1447 1444 1443 1441 1438